Find Local Weather

World > North America > United States > Florida

Panama City, Florida Regional Weather

Lat: 30.17N, Lon: 85.67W
Wx Zone: FLZ012
Feedback
Expires:201804230600;;363002
ASUS42 KTBW 230516
RWRFL 
FLORIDA REGIONAL WEATHER ROUNDUP
NATIONAL WEATHER SERVICE TAMPA BAY RUSKIN FL
100 AM EDT MON APR 23 2018

NOTE: "FAIR" INDICATES FEW OR NO CLOUDS BELOW 12,000 FEET WITH NO
SIGNIFICANT WEATHER AND/OR OBSTRUCTIONS TO VISIBILITY.


FLZ001>010-012>015-112-114-115-230600-
PANHANDLE FLORIDA
  
CITY           SKY/WX    TMP DP  RH WIND       PRES   REMARKS
PENSACOLA      CLOUDY    71  67  87 SW8       29.92S                  
PENSACOLA NAS  FAIR      69  66  90 SW6       29.92S                  
MILTON NAS     FAIR      66  66 100 SW3       29.92  FOG              
CRESTVIEW      FAIR      66  64  93 CALM      29.94S FOG              
DUKE FIELD     FAIR      69  68  98 SW7       29.92S                  
VALPARAISO     CLOUDY    69  69  99 SW5       29.92S                  
MARY ESTHER    PTCLDY    69  68  96 SW3       29.91                   
TRI COUNTY     MOCLDY    67  67 100 S5        29.94F                  
PANAMA CITY    CLOUDY    70  68  93 S5        29.94S                  
TYNDALL AFB    MOCLDY    70  68  93 S7        29.95S                  
APALACHICOLA   MOCLDY    72  71  97 S12       29.95F                  

STATION/POSITION SKY/WX   TEMP    WIND        PRES    WAVE   SWELL
                          AIR SEA DIR/SP/G            HT/PER HT/PER
                          (F)     (DEG/KT/KT) (MB)    (FT/S) (FT/S)
30.1N   87.6W              70     210/ 10/ 14 1013.2S   4/ 7   3/ 7
29.2N   88.2W                 73  240/ 14/ 16 1014.0S   4/ 6
28.8N   86.0W              75 74  220/ 17/ 21 1013.8F   5/ 6
PANAMA CITY BEAC           70 71  170/  8/  9 1014.3S
TOWER C                    74     200/ 18/ 20 1014.5F

$$

SKY/WX - Weather  TMP - Temperature  DP - Dewpoint  RH - Relative Humidity
WIND - Wind Direction/Speed PRES - Barometric Pressure